EW7117 Weather Reports


time (UTC)temp
F
wind
direction
speed
knots
gust
knots
rain 1hr
in
rain 24hr
in
rain mn
in
humidity
%
barometer
mb
20260504044557 47 237 0.9 7.8 0.00 0.00 0.00 81 1006.8
20260504043044 47 246 1.7 7.0 0.00 0.00 0.00 81 1006.7
20260504041540 47 217 0.0 7.8 0.00 0.00 0.00 79 1006.8
20260504040036 47 240 0.9 6.1 0.00 0.00 0.00 77 1006.7
20260504034540 47 141 0.0 7.0 0.00 0.00 0.00 74 1006.6
20260504033049 48 236 2.6 10.4 0.00 0.00 0.00 72 1006.7
20260504031534 48 240 2.6 13.0 0.00 0.00 0.00 69 1006.7
20260504030034 49 221 0.0 6.1 0.00 0.00 0.00 69 1006.8
20260504024533 49 207 1.7 10.4 0.00 0.00 0.00 69 1006.9
20260504023031 49 194 0.0 7.8 0.00 0.00 0.00 68 1007.1
20260504021535 48 209 0.0 8.7 0.00 0.00 0.00 65 1007.1
20260504020031 48 254 0.9 6.1 0.00 0.00 0.00 65 1007.1
20260504014529 48 221 0.0 8.7 0.00 0.00 0.00 62 1007.3
20260504013034 48 228 0.0 6.1 0.00 0.00 0.00 60 1007.5
20260504011526 49 229 0.0 7.8 0.00 0.00 0.00 56 1007.3
20260504010025 49 237 1.7 8.7 0.00 0.00 0.00 52 1007.2
20260504004525 49 245 0.9 9.6 0.00 0.00 0.00 52 1007.1
20260504003024 50 254 0.9 8.7 0.00 0.00 0.00 50 1007.1
20260504001524 50 238 0.9 10.4 0.00 0.00 0.00 49 1007.0
20260504000023 50 244 0.0 7.0 0.00 0.00 0.00 48 1007.0
20260503234522 51 254 0.9 9.6 0.00 0.00 0.00 47 1006.9
20260503233021 51 249 2.6 11.3 0.00 0.00 0.00 44 1007.0
20260503231519 52 243 2.6 11.3 0.00 0.00 0.00 42 1006.9
20260503230023 53 221 1.7 9.6 0.00 0.00 0.00 41 1007.0
20260503224518 53 240 2.6 12.2 0.00 0.00 0.00 41 1006.9
20260503223017 53 207 1.7 10.4 0.00 0.00 0.00 50 1007.0
20260503221527 53 222 0.9 11.3 0.00 0.00 0.00 48 1007.1
20260503220015 53 238 3.5 12.2 0.00 0.00 0.00 47 1007.1
20260503214553 53 272 0.9 10.4 0.00 0.00 0.00 48 1007.2
20260503213052 53 188 1.7 14.8 0.00 0.00 0.00 48 1007.3
20260503211605 52 227 0.9 14.8 0.00 0.00 0.00 45 1007.3
20260503210054 52 230 1.7 11.3 0.00 0.00 0.00 46 1007.4
20260503204553 52 215 1.7 14.8 0.00 0.00 0.00 44 1007.6
20260503203046 53 223 0.9 11.3 0.00 0.00 0.00 43 1007.8
20260503201547 53 238 3.5 11.3 0.00 0.00 0.00 43 1007.8
20260503200045 53 224 3.5 13.9 0.00 0.00 0.00 40 1007.9
20260503194547 53 313 4.3 12.2 0.00 0.00 0.00 41 1008.0
20260503193049 53 227 3.5 13.9 0.00 0.00 0.00 42 1008.2
20260503191536 53 235 6.1 13.9 0.00 0.00 0.00 41 1008.4
20260503190032 52 238 2.6 11.3 0.00 0.00 0.00 43 1008.6
20260503184529 52 302 2.6 10.4 0.00 0.00 0.00 46 1008.6
20260503183035 52 259 1.7 8.7 0.00 0.00 0.00 43 1008.7
20260503181545 52 209 0.9 9.6 0.00 0.00 0.00 44 1008.8
20260503180024 52 218 0.9 8.7 0.00 0.00 0.00 44 1008.8
20260503174521 52 231 3.5 9.6 0.00 0.00 0.00 46 1009.0
20260503173039 51 258 3.5 10.4 0.00 0.00 0.00 46 1009.2
20260503171518 50 229 0.0 7.8 0.00 0.00 0.00 45 1009.3
20260503150104 48 254 1.7 8.7 0.00 0.01 0.00 51 1010.9
20260503081536 39 248 0.0 0.0 0.00 0.02 0.00 81 1011.4
20260503071625 40 248 0.0 0.0 0.00 0.02 0.00 83 1011.3
20260503060109 40 248 0.0 0.0 0.00 0.02 0.00 84 1011.5
20260503054544 40 248 0.0 0.0 0.00 0.02 0.00 83 1011.5